Tracking 29892 objects as of 21-Nov-2024
HD Live streaming from Space Station
objects crossing your sky now

STARLINK-6323

Track STARLINK-6323 now!
10-day predictions
STARLINK-6323 is classified as:


NORAD ID: 56524
Int'l Code: 2023-065X
Perigee: 564.8 km
Apogee: 567.5 km
Inclination: 43.0 °
Period: 95.8 minutes
Semi major axis: 6937 km
RCS: Unknown
Launch date: May 14, 2023
Source: United States (US)
Launch site: AIR FORCE EASTERN TEST RANGE (AFETR)
Your satellite tracking list
Your tracking list is empty




NASA's NSSDC Master Catalog

Two Line Element Set (TLE):
1 56524U 23065X   24325.87476213 -.00005361  00000-0 -38192-3 0  9995
2 56524  43.0078 264.6614 0001982 266.6629  93.3987 15.02552474 85357
Source of the keplerian elements: AFSPC